CEB6640 RPMP-RPVM

Flight info

Callsign CEB6640
Flight time 0h 32m
Altitude 20000
Route DCT ALDIN ALDIN3P
Aircraft A20N/M-SDE2E3FGHIRWXY/LB1

Departure

Time 2026-05-08 08:07
Airport Pagadian Airport (RPMP)

Arrival

Time 2026-05-08 08:39
Airport Mactan Cebu International Airport (RPVM)
Time Latitude Longitude Altitude Speed Heading
2026-05-08 07:53 7.83067 123.46248 47 ft 0 kts 152°
2026-05-08 08:02 7.83064 123.46249 47 ft 0 kts 175°
2026-05-08 08:02 7.83059 123.46242 47 ft 2 kts 245°
2026-05-08 08:02 7.83050 123.46223 47 ft 3 kts 245°
2026-05-08 08:03 7.83032 123.46197 47 ft 5 kts 220°
2026-05-08 08:03 7.83004 123.46165 47 ft 6 kts 240°
2026-05-08 08:03 7.82974 123.46112 46 ft 9 kts 241°
2026-05-08 08:03 7.82924 123.46065 46 ft 9 kts 195°
2026-05-08 08:04 7.82846 123.46043 45 ft 11 kts 195°
2026-05-08 08:04 7.82752 123.46017 44 ft 13 kts 196°
2026-05-08 08:04 7.82626 123.45981 43 ft 18 kts 195°
2026-05-08 08:04 7.82468 123.45936 41 ft 22 kts 195°
2026-05-08 08:05 7.82290 123.45885 40 ft 25 kts 196°
2026-05-08 08:05 7.82089 123.45828 39 ft 28 kts 197°
2026-05-08 08:05 7.81888 123.45771 39 ft 26 kts 196°
2026-05-08 08:05 7.81774 123.45750 39 ft 8 kts 199°
2026-05-08 08:06 7.81750 123.45725 39 ft 1 kts 200°
2026-05-08 08:06 7.81749 123.45732 39 ft 1 kts 42°
2026-05-08 08:06 7.81820 123.45751 39 ft 36 kts 16°
2026-05-08 08:06 7.82414 123.45920 41 ft 119 kts 17°
2026-05-08 08:07 7.83471 123.46217 279 ft 156 kts 15°
2026-05-08 08:07 7.84595 123.46523 961 ft 158 kts 14°
2026-05-08 08:07 7.85711 123.46815 1681 ft 159 kts 15°
2026-05-08 08:07 7.86916 123.47129 2335 ft 162 kts 15°
2026-05-08 08:08 7.88169 123.47440 2850 ft 171 kts
2026-05-08 08:08 7.89576 123.47275 3220 ft 194 kts 349°
2026-05-08 08:08 7.91082 123.46915 3729 ft 210 kts 349°
2026-05-08 08:08 7.92766 123.46568 4182 ft 233 kts 351°
2026-05-08 08:09 7.94618 123.46251 4752 ft 252 kts 352°
2026-05-08 08:09 7.96547 123.45954 5327 ft 269 kts 353°
2026-05-08 08:09 7.98615 123.45653 6150 ft 276 kts 354°
2026-05-08 08:09 8.00762 123.45348 7067 ft 280 kts 354°
2026-05-08 08:10 8.02880 123.45052 7908 ft 285 kts 354°
2026-05-08 08:10 8.05042 123.44752 8735 ft 289 kts 354°
2026-05-08 08:10 8.07291 123.44443 9570 ft 293 kts 354°
2026-05-08 08:10 8.09560 123.44130 10376 ft 297 kts 355°
2026-05-08 08:11 8.11707 123.43837 10831 ft 312 kts 355°
2026-05-08 08:11 8.13955 123.43532 11170 ft 329 kts 355°
2026-05-08 08:11 8.16393 123.43200 11740 ft 338 kts 354°
2026-05-08 08:11 8.18806 123.42868 12445 ft 341 kts 354°
2026-05-08 08:12 8.21167 123.42542 13123 ft 344 kts 354°
2026-05-08 08:12 8.23552 123.42216 13762 ft 347 kts 354°
2026-05-08 08:12 8.25942 123.41888 14377 ft 351 kts 354°
2026-05-08 08:12 8.28387 123.41553 14976 ft 354 kts 354°
2026-05-08 08:13 8.30834 123.41217 15549 ft 357 kts 354°
2026-05-08 08:13 8.33325 123.40875 16112 ft 361 kts 354°
2026-05-08 08:13 8.35840 123.40530 16668 ft 364 kts 354°
2026-05-08 08:13 8.38366 123.40185 17213 ft 366 kts 354°
2026-05-08 08:14 8.40920 123.39833 17742 ft 369 kts 354°
2026-05-08 08:14 8.43478 123.39482 18257 ft 372 kts 354°
2026-05-08 08:14 8.46071 123.39127 18759 ft 375 kts 355°
2026-05-08 08:14 8.48649 123.38773 19240 ft 378 kts 355°
2026-05-08 08:15 8.51285 123.38412 19653 ft 380 kts 354°
2026-05-08 08:15 8.53918 123.38049 19812 ft 381 kts 354°
2026-05-08 08:15 8.56546 123.37689 19814 ft 380 kts 354°
2026-05-08 08:15 8.59204 123.37324 19813 ft 380 kts 354°
2026-05-08 08:16 8.61825 123.36964 19811 ft 380 kts 354°
2026-05-08 08:16 8.64478 123.36599 19808 ft 380 kts 354°
2026-05-08 08:16 8.67126 123.36235 19810 ft 380 kts 354°
2026-05-08 08:16 8.69757 123.35873 19809 ft 380 kts 354°
2026-05-08 08:17 8.72363 123.35516 19809 ft 380 kts 354°
2026-05-08 08:17 8.75017 123.35150 19811 ft 379 kts 355°
2026-05-08 08:17 8.77624 123.34792 19810 ft 379 kts 354°
2026-05-08 08:17 8.80263 123.34431 19808 ft 379 kts 354°
2026-05-08 08:18 8.82869 123.34071 19807 ft 379 kts 354°
2026-05-08 08:18 8.85487 123.33711 19808 ft 379 kts 354°
2026-05-08 08:18 8.88115 123.33351 19803 ft 379 kts 354°
2026-05-08 08:18 8.90755 123.32988 19798 ft 379 kts 354°
2026-05-08 08:19 8.93388 123.32626 19794 ft 379 kts 354°
2026-05-08 08:19 8.96002 123.32266 19791 ft 379 kts 354°
2026-05-08 08:19 8.98635 123.31903 19789 ft 379 kts 354°
2026-05-08 08:19 9.01268 123.31541 19786 ft 379 kts 354°
2026-05-08 08:20 9.03894 123.31179 19783 ft 379 kts 354°
2026-05-08 08:20 9.06552 123.30814 19789 ft 379 kts 354°
2026-05-08 08:20 9.09181 123.30483 19786 ft 378 kts 359°
2026-05-08 08:20 9.11786 123.30663 19784 ft 373 kts 14°
2026-05-08 08:21 9.14244 123.31515 19790 ft 370 kts 28°
2026-05-08 08:21 9.16532 123.32775 19801 ft 369 kts 31°
2026-05-08 08:21 9.18793 123.34085 19805 ft 369 kts 32°
2026-05-08 08:21 9.21049 123.35397 19809 ft 369 kts 31°
2026-05-08 08:22 9.23313 123.36706 19804 ft 370 kts 31°
2026-05-08 08:22 9.25545 123.37992 19802 ft 369 kts 31°
2026-05-08 08:22 9.27788 123.39281 19767 ft 370 kts 31°
2026-05-08 08:22 9.30033 123.40571 19262 ft 371 kts 31°
2026-05-08 08:23 9.32266 123.41851 18755 ft 369 kts 31°
2026-05-08 08:23 9.34496 123.43128 18285 ft 367 kts 31°
2026-05-08 08:23 9.36724 123.44405 17821 ft 364 kts 31°
2026-05-08 08:23 9.38926 123.45668 17359 ft 361 kts 31°
2026-05-08 08:24 9.41089 123.46908 16923 ft 358 kts 31°
2026-05-08 08:24 9.43263 123.48156 16482 ft 355 kts 31°
2026-05-08 08:24 9.45410 123.49387 16022 ft 352 kts 31°
2026-05-08 08:24 9.46834 123.50203 15729 ft 350 kts 31°
2026-05-08 08:25 9.48252 123.51016 15444 ft 349 kts 31°
2026-05-08 08:25 9.51759 123.53030 14704 ft 345 kts 31°
2026-05-08 08:25 9.53876 123.54245 14246 ft 343 kts 31°
2026-05-08 08:25 9.55960 123.55441 13784 ft 341 kts 31°
2026-05-08 08:26 9.58009 123.56612 13373 ft 338 kts 30°
2026-05-08 08:26 9.60127 123.57693 12938 ft 336 kts 26°
2026-05-08 08:26 9.62282 123.58601 12514 ft 335 kts 22°
2026-05-08 08:26 9.64494 123.59425 12058 ft 334 kts 21°
2026-05-08 08:27 9.66671 123.60223 11609 ft 332 kts 21°
2026-05-08 08:27 9.68856 123.61021 11161 ft 330 kts 21°
2026-05-08 08:27 9.71013 123.61812 10751 ft 328 kts 21°
2026-05-08 08:27 9.73168 123.62603 10375 ft 323 kts 22°
2026-05-08 08:28 9.75260 123.63371 10226 ft 310 kts 22°
2026-05-08 08:28 9.77620 123.64239 10074 ft 294 kts 22°
2026-05-08 08:28 9.79521 123.64938 9875 ft 286 kts 22°
2026-05-08 08:28 9.81457 123.65653 9483 ft 285 kts 22°
2026-05-08 08:29 9.83398 123.66370 9090 ft 284 kts 22°
2026-05-08 08:29 9.85285 123.67065 8728 ft 282 kts 22°
2026-05-08 08:29 9.87139 123.67749 8376 ft 280 kts 22°
2026-05-08 08:29 9.88963 123.68422 8025 ft 278 kts 22°
2026-05-08 08:30 9.90773 123.69089 7681 ft 276 kts 22°
2026-05-08 08:30 9.92589 123.69758 7334 ft 274 kts 22°
2026-05-08 08:30 9.96169 123.71079 6651 ft 270 kts 22°
2026-05-08 08:31 9.97919 123.71724 6313 ft 268 kts 22°
2026-05-08 08:31 9.99680 123.72374 5986 ft 266 kts 22°
2026-05-08 08:31 10.01420 123.73016 5655 ft 264 kts 22°
2026-05-08 08:31 10.03137 123.73649 5331 ft 262 kts 22°
2026-05-08 08:32 10.04864 123.74287 5004 ft 260 kts 22°
2026-05-08 08:32 10.06560 123.74913 4679 ft 259 kts 22°
2026-05-08 08:32 10.08218 123.75645 4344 ft 256 kts 32°
2026-05-08 08:32 10.09652 123.76689 4016 ft 253 kts 43°
2026-05-08 08:33 10.10962 123.77920 3690 ft 252 kts 45°
2026-05-08 08:33 10.12232 123.79161 3371 ft 251 kts 45°
2026-05-08 08:33 10.13488 123.80386 3174 ft 243 kts 45°
2026-05-08 08:33 10.14687 123.81548 3143 ft 228 kts 45°
2026-05-08 08:34 10.15810 123.82644 3109 ft 214 kts 46°
2026-05-08 08:34 10.16849 123.83688 3068 ft 201 kts 46°
2026-05-08 08:34 10.17812 123.84661 3034 ft 193 kts 46°
2026-05-08 08:34 10.18780 123.85638 2963 ft 193 kts 46°
2026-05-08 08:35 10.19734 123.86597 2910 ft 185 kts 46°
2026-05-08 08:35 10.20624 123.87492 2758 ft 174 kts 46°
2026-05-08 08:35 10.21480 123.88351 2489 ft 172 kts 46°
2026-05-08 08:35 10.22319 123.89193 2221 ft 164 kts 46°
2026-05-08 08:36 10.23107 123.89985 1983 ft 153 kts 46°
2026-05-08 08:36 10.23838 123.90719 1800 ft 139 kts 46°
2026-05-08 08:36 10.24504 123.91388 1601 ft 132 kts 45°
2026-05-08 08:36 10.25166 123.92054 1435 ft 131 kts 45°
2026-05-08 08:37 10.25857 123.92749 1255 ft 130 kts 45°
2026-05-08 08:37 10.26547 123.93443 1072 ft 130 kts 45°
2026-05-08 08:37 10.27199 123.94097 902 ft 129 kts 45°
2026-05-08 08:37 10.27844 123.94747 721 ft 129 kts 45°
2026-05-08 08:38 10.28482 123.95393 542 ft 129 kts 44°
2026-05-08 08:38 10.29130 123.96043 360 ft 128 kts 44°
2026-05-08 08:38 10.29795 123.96708 183 ft 128 kts 44°
2026-05-08 08:38 10.30245 123.97159 79 ft 127 kts 44°
2026-05-08 08:39 10.30698 123.97616 47 ft 116 kts 42°
2026-05-08 08:39 10.31269 123.98186 46 ft 44 kts 45°
2026-05-08 08:39 10.31407 123.98309 46 ft 6 kts 14°
2026-05-08 08:39 10.31443 123.98280 46 ft 7 kts 308°
2026-05-08 08:40 10.31474 123.98241 46 ft 5 kts 309°
2026-05-08 08:40 10.31504 123.98206 46 ft 6 kts 314°
2026-05-08 08:40 10.31541 123.98168 46 ft 7 kts 316°
2026-05-08 08:40 10.31572 123.98135 46 ft 5 kts 302°
2026-05-08 08:41 10.31559 123.98100 46 ft 6 kts 224°
2026-05-08 08:41 10.31551 123.98068 46 ft 5 kts 311°
2026-05-08 08:41 10.31580 123.98040 46 ft 5 kts 315°
2026-05-08 08:41 10.31595 123.98025 46 ft 1 kts 315°
2026-05-08 08:42 10.31599 123.98021 46 ft 0 kts 315°